Latest Weather Observations for Adelaide

IDS60801

Issued at 11:02 pm CDT Wednesday 4 March 2015 (issued every 30 minutes, with the page automatically refreshed every 10 minutes)

About weather observations | Map of weather stations | Latest weather observations for SA | Other Formats
Station Details ID: 023090 Name: KENT TOWN Lat: -34.92 Lon: 138.62 Height: 48.0 m
Data from the previous 72 hours. | See also: Recent months at Adelaide
Date/Time
CDT
Temp
°C
App
Temp
°C
Dew
Point
Rel
Hum
%
Delta-T
°C
Wind Press
QNH
hPa
Press
MSL
hPa
Rain
since 9 am
mm
Dir
 
Spd
km/h
Gust
km/h
Spd
kts
Gust
kts
04/11:00pm 19.1 15.9 13.1 68 3.4 WSW 22 39 12 21 1019.2 - 0.0
04/10:30pm 18.9 16.6 13.0 68 3.3 WSW 17 26 9 14 1019.4 - 0.0
04/10:00pm 19.3 16.0 12.9 66 3.6 WSW 22 41 12 22 1019.0 - 0.0
04/09:30pm 19.3 16.3 12.5 64 3.8 WSW 20 39 11 21 1018.7 - 0.0
04/09:00pm 19.4 15.5 10.9 58 4.6 WSW 22 46 12 25 1018.4 1018.3 0.0
04/08:30pm 19.3 15.3 11.7 61 4.2 WSW 24 41 13 22 1018.1 - 0.0
04/08:00pm 19.2 16.3 12.2 64 3.9 WSW 19 32 10 17 1017.8 - 0.0
04/07:30pm 19.8 16.4 11.2 57 4.7 WSW 20 37 11 20 1017.6 - 0.0
04/07:00pm 20.1 15.4 10.5 54 5.2 WSW 26 35 14 19 1017.3 - 0.0
04/06:30pm 21.2 18.0 11.3 53 5.5 SW 19 30 10 16 1017.3 - 0.0
04/06:00pm 20.9 17.3 10.6 51 5.6 SW 20 33 11 18 1017.3 1017.2 0.0
04/05:30pm 22.1 18.3 9.9 46 6.6 WSW 20 33 11 18 1017.2 - 0.0
04/05:00pm 21.9 18.8 11.7 52 5.7 SW 19 32 10 17 1017.1 - 0.0
04/04:30pm 22.3 19.4 11.1 49 6.2 WSW 17 26 9 14 1017.2 - 0.0
04/04:00pm 23.3 20.1 9.9 42 7.3 WSW 17 26 9 14 1017.3 - 0.0
04/03:30pm 22.9 19.0 9.4 42 7.3 SW 20 30 11 16 1017.7 - 0.0
04/03:00pm 22.8 18.3 8.5 40 7.6 W 22 33 12 18 1018.1 1018.0 0.0
04/02:30pm 22.5 18.6 8.5 40 7.4 SW 19 33 10 18 1018.5 - 0.0
04/02:00pm 22.1 18.5 8.5 41 7.2 SW 17 30 9 16 1018.9 - 0.0
04/01:30pm 21.7 17.2 8.4 42 7.0 W 22 33 12 18 1019.0 - 0.0
04/01:00pm 22.2 18.3 8.8 42 7.1 WSW 19 30 10 16 1019.1 - 0.0
04/12:30pm 21.2 17.7 8.9 45 6.5 SW 17 26 9 14 1019.3 - 0.0
04/12:00pm 21.1 17.8 9.5 47 6.2 WSW 17 28 9 15 1019.5 1019.4 0.0
04/11:30am 20.5 17.0 8.7 46 6.2 WSW 17 30 9 16 1019.8 - 0.0
04/11:00am 21.1 18.4 8.8 45 6.5 WSW 13 20 7 11 1019.5 - 0.0
04/10:30am 19.8 17.9 9.2 50 5.6 SW 9 19 5 10 1019.6 - 0.0
04/10:00am 19.0 17.0 10.0 56 4.8 SSW 11 17 6 9 1019.6 - 0.0
04/09:30am 18.7 17.1 10.1 57 4.6 WSW 9 13 5 7 1019.6 - 0.0
04/09:00am 17.2 16.4 9.8 61 3.9 NE 4 7 2 4 1019.3 1019.2 0.0
04/08:30am 16.2 15.1 10.1 67 3.2 ENE 6 9 3 5 1019.3 - 0.0
04/08:00am 15.0 13.7 9.8 71 2.7 ENE 7 11 4 6 1019.3 - 0.0
04/07:30am 13.9 12.7 10.2 78 1.9 ENE 7 9 4 5 1018.8 - 0.0
04/07:00am 14.2 14.3 10.2 77 2.1 CALM 0 7 0 4 1018.5 - 0.0
04/06:30am 14.1 14.2 10.3 78 2.0 CALM 0 0 0 0 1018.5 - 0.0
04/06:00am 14.3 13.0 10.1 76 2.2 SSW 7 9 4 5 1018.2 1018.1 0.0
04/05:30am 14.4 12.8 10.2 76 2.2 SW 9 13 5 7 1018.1 - 0.0
04/05:00am 14.4 12.8 10.2 76 2.2 SW 9 11 5 6 1017.9 - 0.0
04/04:30am 14.6 13.4 10.4 76 2.2 SW 7 11 4 6 1017.6 - 0.0
04/04:00am 14.9 13.8 10.5 75 2.3 SSW 7 11 4 6 1017.7 - 0.0
04/03:30am 15.2 14.1 10.7 74 2.4 SW 7 11 4 6 1018.0 - 0.0
04/03:00am 15.6 14.1 10.7 72 2.6 SW 9 11 5 6 1018.3 1018.2 0.0
04/02:30am 15.7 14.6 10.8 72 2.6 SSW 7 11 4 6 1018.5 - 0.0
04/02:00am 15.9 14.8 10.8 71 2.7 SSW 7 11 4 6 1018.9 - 0.0
04/01:30am 16.1 14.7 10.8 71 2.8 SSW 9 15 5 8 1018.8 - 0.0
04/01:00am 16.5 15.4 10.7 68 3.1 S 7 13 4 7 1018.9 - 0.0
04/12:30am 16.7 15.8 10.5 67 3.3 SSE 6 11 3 6 1018.9 - 0.0
04/12:00am 17.0 14.4 10.8 67 3.3 SE 15 20 8 11 1019.0 1018.9 0.0
 
Date/Time
CDT
Temp
°C
App
Temp
°C
Dew
Point
Rel
Hum
%
Delta-T
°C
Wind Press
QNH
hPa
Press
MSL
hPa
Rain
since 9 am
mm
Dir
 
Spd
km/h
Gust
km/h
Spd
kts
Gust
kts
03/11:30pm 17.3 14.3 10.6 64 3.6 SSE 17 22 9 12 1019.1 - 0.0
03/11:00pm 17.7 15.6 9.7 59 4.2 S 11 15 6 8 1019.1 - 0.0
03/10:30pm 18.0 16.1 9.0 55 4.7 SE 9 15 5 8 1018.9 - 0.0
03/10:00pm 18.3 16.8 9.1 55 4.8 SSE 7 9 4 5 1018.5 - 0.0
03/09:30pm 18.9 16.7 9.4 54 5.0 SSE 11 19 6 10 1018.3 - 0.0
03/09:00pm 19.7 17.4 9.1 50 5.6 S 11 15 6 8 1018.0 1017.9 0.0
03/08:30pm 20.3 17.6 8.9 48 6.0 SSE 13 19 7 10 1017.5 - 0.0
03/08:00pm 21.4 18.6 8.7 44 6.7 SSE 13 20 7 11 1017.0 - 0.0
03/07:30pm 22.5 19.7 8.5 40 7.4 SSE 13 22 7 12 1016.5 - 0.0
03/07:00pm 23.9 20.7 8.3 37 8.3 SSE 15 20 8 11 1016.1 - 0.0
03/06:30pm 25.7 22.7 7.9 32 9.5 SSE 13 17 7 9 1015.7 - 0.0
03/06:00pm 26.1 22.9 8.3 32 9.6 SSE 15 20 8 11 1015.6 1015.5 0.0
03/05:30pm 26.6 23.9 9.1 33 9.6 SSW 13 20 7 11 1015.4 - 0.0
03/05:00pm 27.5 24.9 9.2 31 10.1 SSE 13 20 7 11 1015.2 - 0.0
03/04:30pm 28.2 24.5 9.5 31 10.4 S 19 26 10 14 1015.3 - 0.0
03/04:00pm 28.2 24.4 9.2 30 10.5 SSW 19 24 10 13 1015.1 - 0.0
03/03:30pm 29.0 25.0 8.1 27 11.4 NW 19 24 10 13 1015.4 - 0.0
03/03:00pm 28.9 25.5 9.0 28 11.0 WSW 17 28 9 15 1015.8 1015.7 0.0
03/02:30pm 28.6 26.2 9.9 31 10.5 WSW 13 22 7 12 1016.1 - 0.0
03/02:00pm 27.8 25.4 10.2 33 9.9 W 13 20 7 11 1016.3 - 0.0
03/01:30pm 27.4 25.3 6.8 27 10.9 W 7 13 4 7 1016.7 - 0.0
03/01:00pm 26.0 23.9 8.1 32 9.6 S 9 15 5 8 1017.1 - 0.0
03/12:30pm 25.6 23.9 8.5 33 9.2 W 7 13 4 7 1017.6 - 0.0
03/12:00pm 25.5 23.5 8.6 34 9.1 NW 9 13 5 7 1018.2 1018.1 0.0
03/11:30am 24.7 22.8 9.0 37 8.5 W 9 15 5 8 1018.6 - 0.0
03/11:00am 22.9 21.6 9.1 41 7.4 WSW 6 9 3 5 1018.7 - 0.0
03/10:30am 21.9 21.0 9.2 44 6.8 ESE 4 11 2 6 1018.4 - 0.0
03/10:00am 21.3 20.4 9.1 45 6.5 ENE 4 9 2 5 1018.4 - 0.0
03/09:30am 20.3 18.9 9.4 49 5.8 SE 7 11 4 6 1018.3 - 0.0
03/09:00am 20.2 19.5 10.2 52 5.4 SSE 4 9 2 5 1018.3 1018.2 0.0
03/08:30am 18.7 17.4 9.9 56 4.7 ENE 7 9 4 5 1017.8 - 0.0
03/08:00am 17.2 15.3 10.4 64 3.6 SSE 11 13 6 7 1017.5 - 0.0
03/07:30am 16.1 16.2 10.2 68 3.1 CALM 0 0 0 0 1017.0 - 0.0
03/07:00am 16.5 15.3 9.6 63 3.6 ESE 6 11 3 6 1016.4 - 0.0
03/06:30am 16.7 15.4 10.1 65 3.5 ESE 7 11 4 6 1016.2 - 0.0
03/06:00am 16.9 15.7 10.3 65 3.5 SE 7 11 4 6 1016.1 1016.0 0.0
03/05:30am 17.0 15.1 10.6 66 3.4 SE 11 15 6 8 1015.8 - 0.0
03/05:00am 16.9 17.5 12.0 73 2.7 CALM 0 0 0 0 1015.7 - 0.0
03/04:30am 17.6 16.9 11.3 66 3.4 SE 6 11 3 6 1015.6 - 0.0
03/04:00am 18.0 16.8 11.6 66 3.5 SSE 9 11 5 6 1015.6 - 0.0
03/03:30am 18.2 17.7 12.0 67 3.4 SSE 6 7 3 4 1015.6 - 0.0
03/03:00am 18.6 19.3 12.1 66 3.6 CALM 0 7 0 4 1015.6 1015.5 0.0
03/02:30am 18.7 18.3 12.4 67 3.5 SSW 6 9 3 5 1015.8 - 0.0
03/02:00am 19.1 18.0 12.1 64 3.9 SSE 9 15 5 8 1015.8 - 0.0
03/01:30am 19.3 18.2 12.1 63 4.0 ESE 9 15 5 8 1016.1 - 0.0
03/01:00am 19.9 18.8 12.0 60 4.4 SSE 9 15 5 8 1016.1 - 0.0
03/12:30am 20.3 19.2 10.8 54 5.2 S 7 11 4 6 1016.0 - 0.0
03/12:00am 20.4 20.9 11.6 57 4.9 CALM 0 6 0 3 1015.9 1015.8 0.0
 
Date/Time
CDT
Temp
°C
App
Temp
°C
Dew
Point
Rel
Hum
%
Delta-T
°C
Wind Press
QNH
hPa
Press
MSL
hPa
Rain
since 9 am
mm
Dir
 
Spd
km/h
Gust
km/h
Spd
kts
Gust
kts
02/11:30pm 20.5 21.2 12.1 58 4.7 CALM 0 0 0 0 1015.9 - 0.0
02/11:00pm 21.1 20.0 10.5 50 5.8 SE 7 11 4 6 1015.9 - 0.0
02/10:30pm 21.1 19.4 9.8 48 6.1 SE 9 15 5 8 1016.2 - 0.0
02/10:00pm 20.9 20.9 14.2 65 3.9 SSW 7 11 4 6 1016.2 - 0.0
02/09:30pm 21.2 19.9 13.8 62 4.3 SW 13 20 7 11 1016.1 - 0.0
02/09:00pm 22.1 19.6 11.1 49 6.1 SW 15 24 8 13 1015.7 1015.6 0.0
02/08:30pm 23.1 20.6 6.5 34 8.5 SW 9 17 5 9 1015.1 - 0.0
02/08:00pm 23.4 20.4 5.9 32 8.9 SSW 11 20 6 11 1014.7 - 0.0
02/07:30pm 23.9 20.9 7.8 35 8.5 SW 13 19 7 10 1014.5 - 0.0
02/07:00pm 24.7 21.1 4.8 27 10.0 SW 13 20 7 11 1014.3 - 0.0
02/06:30pm 25.1 21.6 3.6 25 10.6 SSW 11 17 6 9 1013.7 - 0.0
02/06:00pm 25.3 22.0 4.6 26 10.4 SSW 11 19 6 10 1013.6 1013.4 0.0
02/05:30pm 25.7 22.0 4.7 26 10.6 WSW 13 20 7 11 1013.4 - 0.0
02/05:00pm 25.7 22.4 4.7 26 10.6 WSW 11 17 6 9 1013.3 - 0.0
02/04:30pm 26.1 23.1 5.8 27 10.5 SW 11 17 6 9 1013.1 - 0.0
02/04:00pm 25.5 21.9 5.0 26 10.4 SW 13 20 7 11 1013.4 - 0.0
02/03:30pm 26.0 22.5 5.3 26 10.6 SSW 13 22 7 12 1013.6 - 0.0
02/03:00pm 26.7 21.8 2.2 20 11.9 WSW 17 24 9 13 1013.5 1013.3 0.0
02/02:30pm 27.4 24.6 3.0 20 12.1 NE 7 11 4 6 1013.4 - 0.0
02/02:00pm 28.1 24.6 3.7 21 12.3 WNW 11 17 6 9 1013.3 - 0.0
02/01:30pm 27.0 23.4 3.2 21 11.8 NNW 11 17 6 9 1013.5 - 0.0
02/01:00pm 27.2 23.3 3.2 21 11.9 NNW 13 19 7 10 1013.8 - 0.0
02/12:30pm 27.1 23.7 4.1 23 11.6 WNW 11 19 6 10 1014.2 - 0.0
02/12:00pm 26.4 23.3 5.7 26 10.7 N 11 26 6 14 1014.5 1014.3 0.0
02/11:30am 25.5 22.0 5.6 28 10.2 N 13 20 7 11 1014.7 - 0.0
02/11:00am 24.4 21.2 6.7 32 9.2 NE 13 20 7 11 1015.4 - 0.0
02/10:30am 23.5 20.2 6.3 33 8.8 NNE 13 19 7 10 1016.0 - 0.0
02/10:00am 22.6 20.2 6.9 36 8.1 NNE 9 15 5 8 1016.1 - 0.0
02/09:30am 21.5 19.5 7.1 39 7.4 NE 7 13 4 7 1015.9 - 0.0
02/09:00am 20.4 18.3 8.1 45 6.4 N 9 11 5 6 1016.0 1015.9 0.0
02/08:30am 19.6 17.7 7.7 46 6.1 N 7 11 4 6 1015.6 - 0.0
02/08:00am 19.4 17.7 7.7 46 6.0 NNW 6 9 3 5 1016.0 - 0.0
02/07:30am 18.9 16.5 7.2 46 5.9 ENE 9 13 5 7 1015.5 - 0.0
02/07:00am 18.8 17.5 7.6 48 5.7 ENE 4 11 2 6 1015.2 - 0.0
02/06:30am 18.3 16.2 8.2 51 5.2 ENE 9 15 5 8 1015.0 - 0.0
02/06:00am 18.0 15.1 8.0 52 5.1 E 13 24 7 13 1014.8 1014.7 0.0
02/05:30am 17.5 15.9 8.1 54 4.8 NE 6 15 3 8 1014.2 - 0.0
02/05:00am 16.4 14.4 8.8 60 3.9 E 9 19 5 10 1014.0 - 0.0
02/04:30am 15.3 15.3 9.7 69 2.9 CALM 0 2 0 1 1014.2 - 0.0
02/04:00am 15.5 15.5 9.7 68 3.0 CALM 0 0 0 0 1014.4 - 0.0
02/03:30am 15.8 15.4 9.9 68 3.1 NNW 2 7 1 4 1014.7 - 0.0
02/03:00am 15.9 14.6 9.8 67 3.2 W 7 11 4 6 1015.0 1014.9 0.0
02/02:30am 16.5 15.3 9.6 63 3.6 SSE 6 11 3 6 1015.2 - 0.0
02/02:00am 16.2 15.0 9.7 65 3.4 S 6 11 3 6 1015.8 - 0.0
02/01:30am 16.7 15.2 9.2 61 3.9 SSW 7 11 4 6 1016.0 - 0.0
02/01:00am 16.8 15.3 9.1 60 4.0 ESE 7 13 4 7 1016.0 - 0.0
02/12:30am 16.9 15.5 9.4 61 3.9 ESE 7 15 4 8 1016.1 - 0.0
02/12:00am 16.7 13.8 9.8 63 3.6 SE 15 24 8 13 1016.3 1016.2 0.0
 
Date/Time
CDT
Temp
°C
App
Temp
°C
Dew
Point
Rel
Hum
%
Delta-T
°C
Wind Press
QNH
hPa
Press
MSL
hPa
Rain
since 9 am
mm
Dir
 
Spd
km/h
Gust
km/h
Spd
kts
Gust
kts
01/11:30pm 16.6 14.6 10.2 66 3.4 SSE 11 24 6 13 1016.8 - 0.0

Other Formats:

Comma delimited format used in spreadsheet applications
http://www.bom.gov.au/fwo/IDS60801/IDS60801.94675.axf

JavaScript Object Notation format (JSON) in row-major order
http://www.bom.gov.au/fwo/IDS60801/IDS60801.94675.json